Location: Nelson
(41.2830°S, 173.2830°E)
Time: 10:49:59
(UTC+13:00)

Meteor 1-26 Rocket - Pass Details

Date: 20 October 2019
Orbit: 817 x 918 km, 81.3° (Epoch: 11 November)

Event Time Altitude Azimuth Distance (km) Brightness Sun altitude
Rises 22:51:42 0° 187° (S) 3,385 8.1 -29.2°
Reaches altitude 10° 22:54:09 10° 183° (S) 2,447 7.2 -29.5°
Enters shadow 22:58:26 50° 153° (SSE) 1,052 4.7 -30.0°
